SDM6574 UNKL-ULLI

Flight info

Callsign SDM6574
Flight time N/A
Altitude 26000
Route BASEL B938 SURIP R496 NOVRA/K0819F340 T631 SOTIM/K0826F360 T631 NWK M59 SORLI P989 NETLU T756 ODNUS L870 ROMUM T816 AMDEN P979 BEPOL
Aircraft A320/M-SDE3FGHIRWY/LB1

Departure

Time 2026-04-29 06:16
Airport Krasnoyarsk International Airport (UNKL)

Arrival

Time N/A
Airport Pulkovo Airport (ULLI)
Time Latitude Longitude Altitude Speed Heading
2026-04-29 05:53 56.17929 92.48618 984 ft 0 kts 24°
2026-04-29 06:00 56.17913 92.48607 953 ft 4 kts 18°
2026-04-29 06:00 56.17887 92.48596 954 ft 4 kts
2026-04-29 06:01 56.17861 92.48599 952 ft 4 kts 340°
2026-04-29 06:01 56.17841 92.48623 953 ft 3 kts 296°
2026-04-29 06:01 56.17839 92.48629 953 ft 0 kts 292°
2026-04-29 06:06 56.17846 92.48598 953 ft 7 kts 292°
2026-04-29 06:06 56.17860 92.48503 953 ft 8 kts 262°
2026-04-29 06:06 56.17817 92.48442 953 ft 8 kts 200°
2026-04-29 06:06 56.17771 92.48413 955 ft 6 kts 200°
2026-04-29 06:07 56.17736 92.48430 954 ft 5 kts 139°
2026-04-29 06:07 56.17717 92.48499 952 ft 7 kts 112°
2026-04-29 06:07 56.17684 92.48640 954 ft 14 kts 112°
2026-04-29 06:07 56.17647 92.48793 955 ft 12 kts 113°
2026-04-29 06:08 56.17615 92.48929 952 ft 12 kts 113°
2026-04-29 06:08 56.17579 92.49087 954 ft 14 kts 113°
2026-04-29 06:08 56.17543 92.49238 952 ft 12 kts 112°
2026-04-29 06:08 56.17510 92.49376 955 ft 11 kts 113°
2026-04-29 06:09 56.17482 92.49494 953 ft 9 kts 113°
2026-04-29 06:09 56.17451 92.49623 955 ft 16 kts 113°
2026-04-29 06:09 56.17398 92.49846 954 ft 21 kts 113°
2026-04-29 06:09 56.17341 92.50088 953 ft 20 kts 112°
2026-04-29 06:10 56.17288 92.50316 956 ft 21 kts 113°
2026-04-29 06:10 56.17234 92.50537 956 ft 18 kts 114°
2026-04-29 06:10 56.17188 92.50732 955 ft 16 kts 112°
2026-04-29 06:10 56.17148 92.50901 955 ft 14 kts 112°
2026-04-29 06:11 56.17115 92.51043 957 ft 12 kts 113°
2026-04-29 06:11 56.17081 92.51183 953 ft 16 kts 114°
2026-04-29 06:11 56.17027 92.51406 957 ft 20 kts 113°
2026-04-29 06:11 56.16975 92.51626 955 ft 18 kts 112°
2026-04-29 06:12 56.16929 92.51821 955 ft 16 kts 113°
2026-04-29 06:12 56.16885 92.51987 956 ft 13 kts 129°
2026-04-29 06:12 56.16809 92.52021 955 ft 10 kts 174°
2026-04-29 06:12 56.16743 92.52033 955 ft 9 kts 174°
2026-04-29 06:13 56.16684 92.52038 955 ft 8 kts 190°
2026-04-29 06:13 56.16666 92.51972 955 ft 6 kts 290°
2026-04-29 06:13 56.16672 92.51946 955 ft 0 kts 292°
2026-04-29 06:14 56.16674 92.51939 955 ft 8 kts 293°
2026-04-29 06:15 56.16792 92.51427 954 ft 79 kts 292°
2026-04-29 06:15 56.17087 92.50188 951 ft 135 kts 292°
2026-04-29 06:15 56.17518 92.48392 1016 ft 172 kts 292°
2026-04-29 06:15 56.18048 92.46353 1451 ft 188 kts 295°
2026-04-29 06:16 56.18707 92.44203 2049 ft 205 kts 299°
2026-04-29 06:16 56.19380 92.41848 2487 ft 224 kts 293°
2026-04-29 06:16 56.19967 92.39178 3177 ft 232 kts 291°
2026-04-29 06:16 56.20535 92.36447 3992 ft 234 kts 290°
2026-04-29 06:17 56.21118 92.33696 4854 ft 237 kts 291°
2026-04-29 06:17 56.21764 92.30992 5714 ft 239 kts 302°
2026-04-29 06:17 56.22957 92.28885 6528 ft 243 kts 325°
2026-04-29 06:17 56.24435 92.27375 7348 ft 244 kts 332°
2026-04-29 06:18 56.25981 92.26065 8175 ft 247 kts 334°
2026-04-29 06:18 56.27537 92.24777 8941 ft 249 kts 334°
2026-04-29 06:18 56.29122 92.23419 9730 ft 252 kts 333°
2026-04-29 06:18 56.30682 92.22021 10481 ft 254 kts 332°
2026-04-29 06:19 56.32258 92.20558 11158 ft 256 kts 332°
2026-04-29 06:19 56.33843 92.19055 11841 ft 258 kts 331°
2026-04-29 06:19 56.35434 92.17527 12524 ft 260 kts 331°
2026-04-29 06:19 56.37088 92.15930 12768 ft 280 kts 331°
2026-04-29 06:20 56.38878 92.14188 12907 ft 302 kts 330°
2026-04-29 06:20 56.40750 92.12242 13164 ft 317 kts 328°
2026-04-29 06:20 56.42639 92.10086 13730 ft 322 kts 326°
2026-04-29 06:20 56.44501 92.07873 14337 ft 326 kts 326°
2026-04-29 06:21 56.46399 92.05594 14920 ft 328 kts 326°
2026-04-29 06:21 56.48320 92.03291 15515 ft 330 kts 327°
2026-04-29 06:21 56.50224 92.01024 16091 ft 333 kts 327°
2026-04-29 06:21 56.52180 91.98706 16667 ft 335 kts 327°
2026-04-29 06:22 56.54150 91.96382 17236 ft 337 kts 328°
2026-04-29 06:22 56.56102 91.94088 17792 ft 340 kts 328°
2026-04-29 06:22 56.58093 91.91748 18347 ft 342 kts 328°
2026-04-29 06:22 56.60102 91.89384 18881 ft 344 kts 328°
2026-04-29 06:23 56.62119 91.87010 19356 ft 347 kts 328°
2026-04-29 06:23 56.64152 91.84610 19833 ft 348 kts 328°
2026-04-29 06:23 56.66171 91.82221 20298 ft 350 kts 328°
2026-04-29 06:23 56.68221 91.79786 20769 ft 352 kts 328°
2026-04-29 06:24 56.70276 91.77336 21234 ft 354 kts 328°
2026-04-29 06:24 56.72350 91.74864 21684 ft 356 kts 328°
2026-04-29 06:24 56.74407 91.72415 22068 ft 359 kts 328°
2026-04-29 06:24 56.76493 91.69835 22485 ft 361 kts 327°
2026-04-29 06:25 56.78532 91.67111 22899 ft 364 kts 325°
2026-04-29 06:25 56.80527 91.64323 23328 ft 366 kts 324°
2026-04-29 06:25 56.82548 91.61456 23748 ft 368 kts 324°
2026-04-29 06:25 56.84580 91.58579 24142 ft 370 kts 324°
2026-04-29 06:26 56.86610 91.55724 24493 ft 371 kts 325°
2026-04-29 06:26 56.88676 91.52835 24845 ft 373 kts 325°
2026-04-29 06:26 56.90748 91.49952 25189 ft 374 kts 325°
2026-04-29 06:26 56.92811 91.47086 25525 ft 375 kts 326°
2026-04-29 06:27 56.94900 91.44182 25854 ft 377 kts 325°
2026-04-29 06:27 56.96233 91.42119 26055 ft 380 kts 319°
2026-04-29 06:27 56.98496 91.37116 26491 ft 387 kts 310°
2026-04-29 06:27 57.00065 91.33066 26804 ft 389 kts 310°
2026-04-29 06:28 57.01107 91.30376 27006 ft 390 kts 310°
2026-04-29 06:28 57.02682 91.26314 27321 ft 392 kts 310°
2026-04-29 06:28 57.04267 91.22227 27620 ft 393 kts 310°
2026-04-29 06:28 57.06378 91.16778 27988 ft 395 kts 310°
2026-04-29 06:29 57.07441 91.14024 28182 ft 396 kts 310°
2026-04-29 06:29 57.09039 91.09872 28494 ft 398 kts 310°
2026-04-29 06:29 57.10645 91.05686 28793 ft 400 kts 310°
2026-04-29 06:29 57.12255 91.01488 29111 ft 400 kts 310°
2026-04-29 06:30 57.13847 90.97333 29402 ft 402 kts 310°
2026-04-29 06:30 57.17063 90.88913 29932 ft 404 kts 310°
2026-04-29 06:30 57.18691 90.84634 30192 ft 406 kts 310°
2026-04-29 06:31 57.20322 90.80338 30448 ft 407 kts 310°
2026-04-29 06:31 57.21935 90.76086 30662 ft 409 kts 310°
2026-04-29 06:31 57.23571 90.71766 30932 ft 409 kts 310°
2026-04-29 06:31 57.25203 90.67451 31238 ft 407 kts 310°
2026-04-29 06:32 57.26806 90.63200 31535 ft 406 kts 310°
2026-04-29 06:32 57.28427 90.58897 31784 ft 406 kts 309°
2026-04-29 06:32 57.30040 90.54612 32058 ft 405 kts 309°
2026-04-29 06:32 57.31629 90.50388 32347 ft 404 kts 309°
2026-04-29 06:33 57.33237 90.46104 32643 ft 403 kts 309°
2026-04-29 06:33 57.34839 90.41827 32932 ft 403 kts 309°
2026-04-29 06:33 57.36436 90.37557 33226 ft 402 kts 309°
2026-04-29 06:33 57.38006 90.33355 33509 ft 401 kts 309°
2026-04-29 06:34 57.39592 90.29105 33833 ft 399 kts 308°
2026-04-29 06:34 57.41167 90.24858 34150 ft 398 kts 308°
2026-04-29 06:34 57.42732 90.20621 34440 ft 397 kts 308°
2026-04-29 06:34 57.44297 90.16382 34677 ft 396 kts 308°
2026-04-29 06:35 57.45844 90.12193 34873 ft 396 kts 308°
2026-04-29 06:35 57.47409 90.07949 35058 ft 397 kts 308°
2026-04-29 06:35 57.48954 90.03755 35230 ft 397 kts 308°
2026-04-29 06:35 57.50520 89.99509 35398 ft 398 kts 307°
2026-04-29 06:36 57.52085 89.95257 35549 ft 398 kts 307°
2026-04-29 06:36 57.53646 89.91002 35719 ft 398 kts 307°
2026-04-29 06:36 57.55212 89.86724 35889 ft 398 kts 307°
2026-04-29 06:36 57.56752 89.82511 36043 ft 399 kts 307°
2026-04-29 06:37 57.58312 89.78226 36196 ft 399 kts 307°
2026-04-29 06:37 57.59868 89.73941 36370 ft 399 kts 307°
2026-04-29 06:37 57.61426 89.69639 36429 ft 399 kts 306°
2026-04-29 06:38 57.64542 89.61016 36435 ft 399 kts 306°
2026-04-29 06:38 57.67626 89.52463 36433 ft 398 kts 306°
2026-04-29 06:39 57.70708 89.43894 36427 ft 398 kts 306°
2026-04-29 06:39 57.73792 89.35345 36428 ft 398 kts 306°
2026-04-29 06:40 57.76907 89.26768 36428 ft 398 kts 306°
2026-04-29 06:40 57.80020 89.18193 36428 ft 398 kts 306°
2026-04-29 06:41 57.83103 89.09631 36421 ft 398 kts 306°
2026-04-29 06:41 57.86196 89.01001 36422 ft 398 kts 306°
2026-04-29 06:42 57.89287 88.92346 36420 ft 398 kts 306°
2026-04-29 06:42 57.92346 88.83747 36435 ft 398 kts 306°
2026-04-29 06:43 57.95414 88.75067 36409 ft 397 kts 305°
2026-04-29 06:43 57.98460 88.66444 36416 ft 397 kts 305°
2026-04-29 06:44 58.01526 88.57763 36419 ft 397 kts 305°
2026-04-29 06:44 58.04579 88.49057 36415 ft 397 kts 305°
2026-04-29 06:45 58.07602 88.40381 36416 ft 397 kts 305°
2026-04-29 06:45 58.10640 88.31654 36417 ft 397 kts 305°
2026-04-29 06:46 58.13654 88.22978 36409 ft 397 kts 305°
2026-04-29 06:46 58.16692 88.14211 36379 ft 397 kts 304°
2026-04-29 06:47 58.19709 88.05445 36407 ft 397 kts 304°
2026-04-29 06:47 58.22705 87.96707 36412 ft 397 kts 304°
2026-04-29 06:48 58.25698 87.87948 36407 ft 396 kts 304°
2026-04-29 06:48 58.28699 87.79150 36408 ft 396 kts 304°
2026-04-29 06:49 58.31705 87.70341 36406 ft 396 kts 304°
2026-04-29 06:49 58.34689 87.61563 36401 ft 396 kts 304°
2026-04-29 06:50 58.37657 87.52760 36399 ft 396 kts 304°
2026-04-29 06:50 58.40636 87.43889 36378 ft 396 kts 303°
2026-04-29 06:51 58.43598 87.35036 36382 ft 397 kts 303°
2026-04-29 06:51 58.46567 87.26120 36391 ft 397 kts 303°
2026-04-29 06:52 58.49524 87.17238 36389 ft 397 kts 303°
2026-04-29 06:52 58.52490 87.08301 36392 ft 397 kts 303°
2026-04-29 06:53 58.55442 86.99344 36387 ft 397 kts 303°
2026-04-29 06:53 58.58379 86.90391 36387 ft 397 kts 303°
2026-04-29 06:54 58.61305 86.81448 36362 ft 397 kts 302°
2026-04-29 06:54 58.64220 86.72412 36362 ft 398 kts 301°
2026-04-29 06:55 58.66909 86.63163 36365 ft 398 kts 298°
2026-04-29 06:55 58.69473 86.53708 36371 ft 398 kts 298°
2026-04-29 06:56 58.72022 86.44279 36391 ft 398 kts 298°
2026-04-29 06:56 58.74605 86.34825 36393 ft 398 kts 298°
2026-04-29 06:57 58.77183 86.25437 36385 ft 398 kts 298°
2026-04-29 06:57 58.79767 86.15974 36357 ft 398 kts 297°
2026-04-29 06:58 58.82344 86.06493 36356 ft 398 kts 297°
2026-04-29 06:58 58.84891 85.97055 36367 ft 398 kts 297°
2026-04-29 06:59 58.87444 85.87547 36357 ft 398 kts 297°
2026-04-29 06:59 58.89981 85.78067 36359 ft 398 kts 297°
2026-04-29 07:00 58.92509 85.68588 36362 ft 398 kts 297°
2026-04-29 07:00 58.95052 85.59026 36372 ft 398 kts 297°
2026-04-29 07:01 58.97584 85.49461 36364 ft 398 kts 296°
2026-04-29 07:01 59.00088 85.39934 36364 ft 398 kts 296°
2026-04-29 07:02 59.02607 85.30327 36363 ft 398 kts 296°
2026-04-29 07:02 59.05103 85.20793 36368 ft 398 kts 296°
2026-04-29 07:03 59.07593 85.11183 36365 ft 398 kts 296°
2026-04-29 07:03 59.10077 85.01608 36354 ft 398 kts 296°
2026-04-29 07:04 59.12563 84.91967 36358 ft 398 kts 296°
2026-04-29 07:04 59.15045 84.82296 36342 ft 398 kts 295°
2026-04-29 07:05 59.17503 84.72675 36345 ft 398 kts 295°
2026-04-29 07:05 59.19960 84.63023 36351 ft 398 kts 295°
2026-04-29 07:06 59.22427 84.53297 36346 ft 399 kts 295°
2026-04-29 07:06 59.24868 84.43609 36357 ft 399 kts 295°
2026-04-29 07:07 59.27320 84.33835 36354 ft 399 kts 295°
2026-04-29 07:07 59.29750 84.24120 36349 ft 399 kts 295°
2026-04-29 07:08 59.32186 84.14347 36339 ft 399 kts 295°
2026-04-29 07:08 59.34595 84.04617 36337 ft 399 kts 295°
2026-04-29 07:09 59.37014 83.94809 36342 ft 399 kts 294°
2026-04-29 07:09 59.39424 83.84985 36342 ft 399 kts 294°
2026-04-29 07:10 59.41826 83.75189 36343 ft 399 kts 294°
2026-04-29 07:10 59.44235 83.65323 36342 ft 399 kts 294°
2026-04-29 07:11 59.46617 83.55500 36346 ft 399 kts 294°
2026-04-29 07:11 59.49003 83.45594 36341 ft 399 kts 294°
2026-04-29 07:12 59.51375 83.35709 36342 ft 398 kts 294°
2026-04-29 07:12 59.53725 83.25857 36334 ft 398 kts 293°
2026-04-29 07:13 59.56066 83.15997 36329 ft 398 kts 293°
2026-04-29 07:13 59.58422 83.06077 36327 ft 398 kts 293°
2026-04-29 07:14 59.60757 82.96180 36328 ft 398 kts 293°
2026-04-29 07:14 59.63083 82.86266 36335 ft 399 kts 293°
2026-04-29 07:15 59.65016 82.77986 36324 ft 399 kts 293°
2026-04-29 07:15 59.67717 82.66372 36325 ft 399 kts 293°
2026-04-29 07:16 59.69644 82.58054 36344 ft 399 kts 292°
2026-04-29 07:16 59.71954 82.48043 36338 ft 398 kts 292°
2026-04-29 07:17 59.74244 82.38089 36323 ft 398 kts 292°
2026-04-29 07:17 59.76530 82.28078 36324 ft 397 kts 292°
2026-04-29 07:18 59.78795 82.18124 36316 ft 397 kts 292°
2026-04-29 07:18 59.81070 82.08067 36306 ft 397 kts 292°
2026-04-29 07:19 59.83324 81.98080 36306 ft 398 kts 292°
2026-04-29 07:19 59.85583 81.88003 36308 ft 398 kts 292°
2026-04-29 07:20 59.87823 81.77982 36299 ft 397 kts 292°
2026-04-29 07:20 59.90052 81.67930 36297 ft 397 kts 291°
2026-04-29 07:21 59.92284 81.57828 36320 ft 397 kts 291°
2026-04-29 07:21 59.94487 81.47809 36315 ft 396 kts 291°
2026-04-29 07:22 59.96689 81.37735 36300 ft 396 kts 291°
2026-04-29 07:22 59.98888 81.27604 36296 ft 396 kts 291°
2026-04-29 07:23 60.01080 81.17513 36287 ft 397 kts 291°
2026-04-29 07:23 60.03267 81.07413 36287 ft 397 kts 290°
2026-04-29 07:24 60.05447 80.97283 36286 ft 397 kts 290°
2026-04-29 07:24 60.07620 80.87090 36287 ft 397 kts 290°
2026-04-29 07:25 60.09770 80.76947 36280 ft 397 kts 290°
2026-04-29 07:25 60.11933 80.66716 36283 ft 397 kts 290°
2026-04-29 07:26 60.14075 80.56557 36303 ft 397 kts 290°
2026-04-29 07:26 60.16226 80.46296 36296 ft 397 kts 289°
2026-04-29 07:27 60.18344 80.36098 36283 ft 397 kts 289°
2026-04-29 07:27 60.20478 80.25837 36278 ft 396 kts 289°
2026-04-29 07:28 60.22595 80.15619 36278 ft 396 kts 289°
2026-04-29 07:28 60.24699 80.05416 36269 ft 396 kts 289°
2026-04-29 07:29 60.26798 79.95168 36260 ft 396 kts 289°
2026-04-29 07:29 60.28897 79.84871 36262 ft 396 kts 289°
2026-04-29 07:30 60.30979 79.74598 36250 ft 397 kts 289°
2026-04-29 07:30 60.33066 79.64258 36250 ft 397 kts 289°
2026-04-29 07:31 60.36168 79.48790 36273 ft 397 kts 288°
2026-04-29 07:31 60.38227 79.38458 36267 ft 397 kts 288°
2026-04-29 07:32 60.40275 79.28150 36261 ft 397 kts 288°
2026-04-29 07:32 60.42323 79.17757 36260 ft 397 kts 288°
2026-04-29 07:33 60.44352 79.07393 36242 ft 397 kts 288°
2026-04-29 07:33 60.46392 78.96958 36238 ft 398 kts 288°
2026-04-29 07:34 60.48407 78.86576 36238 ft 398 kts 287°
2026-04-29 07:34 60.50427 78.76087 36236 ft 398 kts 287°
2026-04-29 07:35 60.52432 78.65653 36234 ft 398 kts 287°
2026-04-29 07:35 60.54445 78.55120 36234 ft 398 kts 287°
2026-04-29 07:36 60.56430 78.44662 36258 ft 398 kts 287°
2026-04-29 07:36 60.58421 78.34110 36256 ft 398 kts 286°
2026-04-29 07:37 60.60392 78.23608 36236 ft 399 kts 286°
2026-04-29 07:37 60.62370 78.13045 36231 ft 399 kts 286°
2026-04-29 07:38 60.64342 78.02460 36228 ft 399 kts 286°
2026-04-29 07:38 60.66295 77.91910 36224 ft 399 kts 286°
2026-04-29 07:39 60.68236 77.81351 36219 ft 399 kts 286°
2026-04-29 07:39 60.70176 77.70737 36220 ft 399 kts 286°
2026-04-29 07:40 60.72148 77.60136 36210 ft 399 kts 287°
2026-04-29 07:40 60.74249 77.49652 36208 ft 400 kts 288°
2026-04-29 07:41 60.76390 77.39108 36225 ft 400 kts 287°
2026-04-29 07:41 60.78492 77.28538 36208 ft 400 kts 287°
2026-04-29 07:42 60.80551 77.18016 36201 ft 400 kts 286°
2026-04-29 07:42 60.82610 77.07380 36199 ft 400 kts 286°
2026-04-29 07:43 60.84669 76.96820 36190 ft 400 kts 287°
2026-04-29 07:43 60.86757 76.86191 36176 ft 400 kts 286°
2026-04-29 07:44 60.88813 76.75630 36156 ft 401 kts 286°
2026-04-29 07:44 60.90881 76.64949 36141 ft 402 kts 286°
2026-04-29 07:45 60.92947 76.54238 36144 ft 402 kts 286°
2026-04-29 07:45 60.95177 76.43737 36176 ft 407 kts 292°
2026-04-29 07:46 60.97907 76.33474 36166 ft 407 kts 292°
2026-04-29 07:46 61.00600 76.23241 36163 ft 407 kts 292°
2026-04-29 07:47 61.03291 76.12979 36160 ft 407 kts 292°
2026-04-29 07:47 61.05994 76.02639 36172 ft 407 kts 292°
2026-04-29 07:48 61.08660 75.92371 36161 ft 408 kts 291°
2026-04-29 07:48 61.11342 75.81994 36158 ft 408 kts 291°
2026-04-29 07:49 61.13997 75.71660 36147 ft 408 kts 291°
2026-04-29 07:49 61.16662 75.61243 36163 ft 408 kts 291°
2026-04-29 07:50 61.18424 75.54339 36190 ft 409 kts 291°